Location: ???????????
(55.5758°N, 38.4970°E)
Time: 19:10:33
(UTC+00:00)

IRS-1D - Pass Details

Date: 15 November 2025
Orbit: 736 x 811 km, 98.8° (Epoch: 14 December)

Event Time Altitude Azimuth Distance (km) Brightness Sun altitude
Rises 02:09:03 0° 19° (NNE) 3,202 7.0 -23.8°
Reaches altitude 10° 02:11:26 10° 25° (NNE) 2,267 6.2 -23.5°
Maximum altitude 02:16:15 48° 100° (E) 965 4.4 -22.8°
Drops below altitude 10° 02:20:59 10° 175° (S) 2,239 6.0 -22.2°
Sets 02:23:20 0° 181° (S) 3,159 6.7 -21.8°
